Regional Weather Roundup
Issued by NWS

Home | Current Version | Previous Version | Graphics & Text | Print | Product List | Glossary On
Versions: 1 2 3 4 5 6 7 8 9 10 11 12 13 14 15 16 17 18 19 20 21 22 23 24 25 26 27 28 29 30 31 32 33 34 35 36 37 38 39 40 41 42 43 44 45 46 47 48 49 50
000
ASUS44 KMEG 270200
RWRTN
TENNESSEE HOURLY STATE WEATHER ROUNDUP
NATIONAL WEATHER SERVICE MEMPHIS TN
800 PM CST THU FEB 26 2015

TNZ002-004-019-021-049-052-054-088>092-270300-
WEST TENNESSEE

CITY           SKY/WX    TMP DP  RH WIND       PRES   REMARKS
MEMPHIS INTL   CLOUDY    30  19  63 N16G24    30.35R WCI  19
NWS MEMPHIS      N/A     29 N/A N/A MISG        N/A
JACKSON        CLOUDY    28  19  69 N17       30.34R WCI  16
DYERSBURG      CLOUDY    27   7  43 N17       30.40S WCI  14
UNION CITY     CLOUDY    23  18  80 N15       30.36R WCI  10
PARIS          CLOUDY    23  18  80 NW9       30.34R WCI  13
LEXINGTON      CLOUDY    27  21  80 N15G23    30.29R WCI  15
SAVANNAH       CLOUDY    28  23  80 N10       30.28R WCI  19
$$

TNZ008-025-027-028-033-062-065-066-270300-
NORTH MIDDLE TENNESSEE

CITY           SKY/WX    TMP DP  RH WIND       PRES   REMARKS
NASHVILLE      CLOUDY    31  23  72 N13       30.27R WCI  21
CLARKSVILLE    CLOUDY    27  19  72 N15       30.32R WCI  15
COOKEVILLE       N/A     34  25  69 N6        30.18R WCI  29
CROSSVILLE     CLOUDY    33  18  53 NW8       30.13R WCI  26
$$

TNZ061-075-076-078-094-096-097-270300-
SOUTH MIDDLE TENNESSEE

CITY           SKY/WX    TMP DP  RH WIND       PRES   REMARKS
FAYETTEVILLE   CLOUDY    34  21  60 N10         N/A  WCI  26
TULLAHOMA      CLOUDY    32  21  64 N12       30.19R WCI  23
WINCHESTER     CLOUDY    34  25  69 N9        30.18R WCI  26
COLUMBIA       CLOUDY    30  30 100 N12       30.24R WCI  21
SHELBYVILLE    CLOUDY    34  25  69 NW15      30.23R WCI  24
$$

TNZ017-018-042-046-047-270300-
NORTHEAST TENNESSEE

CITY           SKY/WX    TMP DP  RH WIND       PRES   REMARKS
TRI CITIES     MOCLDY    31  29  92 W6        30.09R WCI  25
ELIZABETHTON   CLOUDY    30  28  93 W3        30.09R
$$

TNZ012-013-036-069-073-074-270300-
CENTRAL EAST TENNESSEE

CITY           SKY/WX    TMP DP  RH WIND       PRES   REMARKS
KNOXVILLE      PTCLDY    33  30  88 S3        30.14R
OAK RIDGE      MOCLDY    33  29  85 CALM      30.15R
GATLINBURG     CLOUDY    32  28  86 CALM      30.13R
$$

TNZ083-085-099-270300-
SOUTHEAST TENNESSEE

CITY           SKY/WX    TMP DP  RH WIND       PRES   REMARKS
CHATTANOOGA    CLEAR     32  26  78 CALM      30.16R
$$

SKY/WX REPORTED AS FAIR MEANS FEW OR NO CLOUDS BELOW
12 THOUSAND FEET.



USA.gov is the U.S. government's official web portal to all federal, state and local government web resources and services.